OpenBCM V1.13 (Linux)

Packet Radio Mailbox

DB0FHN

[JN59NK Nuernberg]

 Login: GUEST





  
I0OJJ  > KEPS     28.04.25 02:33l 355 Lines 16924 Bytes #999 (0) @ AMSAT
BID : ORB25118.1
Read: DJ6UX GUEST
Subj: 2Line Orbital Elements 25118.AMSAT
Path: DB0FHN<DB0RKB<DK0WUE<DB0ERF<IZ3LSV<I0OJJ
Sent: 250428/0025z @:I0OJJ.ITA.EU [Rome] obcm1.08-6-g5b69
From: I0OJJ @ I0OJJ.ITA.EU (Gustavo)
To:   KEPS @ AMSAT
X-Info: This message was generated automatically


QST de W1STR

AMSAT Orbital Elements for Amateur Satellites in TLE Format
From Orbital Analysis Office
New England Sci-Tech STEM Education Center
Natick, MA April 28, 2025
To all radio amateurs


These element sets describe the orbits of various satellites 
in use by the amateur radio community. For details see:
www.amsat.org/keplerian-elements-formats/

A daily update of element sets is available at:
www.amsat.org/tle/daily-bulletin.txt
or without bulletin text:
www.amsat.org/tle/dailytle.txt


AO-07
1 07530U 74089B   25117.48827689 -.00000038  00000-0  49855-4 0  9998
2 07530 101.9948 121.2921 0012080 202.7070 278.8955 12.53688689308423
UO-11
1 14781U 84021B   25117.87075506  .00003280  00000-0  35208-3 0  9994
2 14781  97.7510  85.0981 0009335 112.7434 247.4771 14.89237703216280
AO-27
1 22825U 93061C   25117.41988978  .00000265  00000-0  11835-3 0  9992
2 22825  98.7400 178.7532 0007488 234.7053 125.3429 14.30782298647549
FO-29
1 24278U 96046B   25117.64875470  .00000032  00000-0  65390-4 0  9997
2 24278  98.5802  17.1843 0350935  93.8100 270.3232 13.53245167416969
NOAA-15
1 25338U 98030A   25117.82874708  .00000422  00000-0  19111-3 0  9995
2 25338  98.5389 143.9823 0011376 121.7303 238.4988 14.26952794402300
GO-32
1 25397U 98043D   25117.91028804  .00000225  00000-0  11751-3 0  9995
2 25397  98.9681  96.1456 0001289  21.4632 338.6600 14.24302251392439
ISS
1 25544U 98067A   25117.70685054  .00017705  00000-0  32494-3 0  9996
2 25544  51.6358 197.0801 0002456  78.7156 281.4109 15.49337401507337
NO-44
1 26931U 01043C   25117.61406193  .00000489  00000-0  21420-3 0  9998
2 26931  67.0509 238.9252 0005651 271.8364  88.2090 14.31710027230951
SO-50
1 27607U 02058C   25117.55542224  .00002673  00000-0  35096-3 0  9996
2 27607  64.5549 333.3309 0051193 344.1721  15.7781 14.81493370202858
CO-55
1 27844U 03031E   25117.46647289  .00000719  00000-0  33239-3 0  9994
2 27844  98.6777 126.2945 0008744 318.6943  41.3573 14.23956862132507
CO-57
1 27848U 03031J   25116.97302607  .00000614  00000-0  29051-3 0  9996
2 27848  98.6803 125.8456 0009028 338.5486  21.5313 14.23296380132168
RS-22
1 27939U 03042A   25117.86871977  .00003108  00000-0  50041-3 0  9993
2 27939  98.3245 286.2997 0012340 141.2621 355.0841 14.72225652154544
NOAA-18
1 28654U 05018A   25117.79960389  .00000393  00000-0  23157-3 0  9992
2 28654  98.8423 197.7561 0013206 248.5387 111.4378 14.13585942 27709
CO-58
1 28895U 05043F   25117.39075305  .00003788  00000-0  62686-3 0  9999
2 28895  98.2428 261.2210 0015809  85.6682 274.6329 14.70839044 40590
CO-65
1 32785U 08021C   25117.56561870  .00010486  00000-0  76365-3 0  9999
2 32785  97.7827  88.4352 0010163  12.6759 347.4720 15.03919247922616
AAUSAT2
1 32788U 08021F   25117.50415569  .00484070  00000-0  25616-2 0  9995
2 32788  97.5963 114.3020 0009194 132.8179 227.3862 15.79245374926592
CO-66
1 32791U 08021J   25117.46653897  .00020915  00000-0  10444-2 0  9999
2 32791  97.7255  96.5894 0002827   0.7676 359.3560 15.17511034923952
RS-30
1 32953U 08025A   25117.82854530  .00000025  00000-0  10440-3 0  9997
2 32953  82.5009 253.7626 0020357 137.8451 222.4199 12.43163186768224
NOAA-19
1 33591U 09005A   25117.79911122  .00000376  00000-0  22427-3 0  9999
2 33591  98.9998 182.2586 0014758 123.1152 237.1438 14.13350364836068
SRMSAT
1 37841U 11058D   25117.18203076  .00000611  00000-0  18864-3 0  9999
2 37841  19.9724  57.1615 0011567 307.6837  80.7322 14.11419203698973
ZACUBE-1
1 39417U 13066B   25117.39007683  .00007279  00000-0  63845-3 0  9996
2 39417  97.7767  74.6576 0043835 194.2858 165.7127 14.96190431618455
Delfi-N3xt
1 39428U 13066N   25117.32363190  .00011753  00000-0  12088-2 0  9993
2 39428  97.8371  35.4816 0087002 141.8430 218.8990 14.87659627612649
GOMX-1
1 39430U 13066Q   25117.87229594  .00003794  00000-0  59547-3 0  9993
2 39430  97.6884 339.1503 0132143 329.7504  29.6119 14.67463740609141
LO-74
1 39440U 13066AA  25117.42303269  .00008444  00000-0  85986-3 0  9990
2 39440  97.8472  62.3002 0061522 324.0316  35.6768 14.89556259615019
AO-73
1 39444U 13066AE  25117.44418594  .00012662  00000-0  96236-3 0  9991
2 39444  97.7754  79.2235 0041352 170.6440 189.5564 15.01601855617116
DTUSAT-2
1 40030U 14033W   25117.42499890  .00011908  00000-0  78595-3 0  9995
2 40030  98.0523  87.1875 0008552 192.7408 167.3604 15.07582860589891
EO-80
1 40032U 14033Y   25117.91208769  .00014521  00000-0  95458-3 0  9995
2 40032  98.0416  87.4113 0010032 134.3781 225.8268 15.07666706590467
LILACSAT-2
1 40908U 15049K   25117.81026587  .00020104  00000-0  54199-3 0  9991
2 40908  97.5088 137.1497 0007811 323.2749  36.7959 15.37817255531652
IO-86
1 40931U 15052B   25038.81889873  .00001817  00000-0  15548-3 0  9993
2 40931   6.0001 108.1159 0012838 187.7041 172.2889 14.78568669506492
Horyu-4
1 41340U 16012D   25116.93753976  .00038818  00000-0  11096-2 0  9993
2 41340  30.9976  64.9951 0008172 316.3770  43.6229 15.34735751506072
Lapan A3
1 41603U 16040E   25117.85037081  .00006708  00000-0  23644-3 0  9996
2 41603  97.1379 124.1425 0012906  66.7187 293.5411 15.29513107491254
CAS-2T
1 41847U 16066G   25117.21763575  .00001421  00000-0  21258-3 0  9994
2 41847  98.4211 192.0534 0345589 309.8238  47.3002 14.43366935444767
CAS-4B
1 42759U 17034B   25117.71628942  .00085178  00000-0  10975-2 0  9990
2 42759  43.0086 216.3353 0019485 347.9742  12.0654 15.57823699435900
CAS-4A
1 42761U 17034D   25117.71550663  .00092312  00000-0  11457-2 0  9991
2 42761  43.0121 213.8958 0020732 352.4632   7.5917 15.58750286435927
TechnoSat
1 42829U 17042E   25117.52916035  .00006726  00000-0  52398-3 0  9997
2 42829  97.3923 288.2971 0015616  68.2496 292.0389 15.01420864424263
AO-91
1 43017U 17073E   25117.89080481  .00014572  00000-0  75862-3 0  9997
2 43017  97.5320 349.7505 0173039 312.5076  46.1640 15.04010278402794
S-Net D
1 43186U 18014G   25117.47104412  .00010295  00000-0  61354-3 0  9994
2 43186  97.5668  20.8242 0009855  24.2701 335.8991 15.11332286395867
S-Net B
1 43187U 18014H   25117.27726553  .00009934  00000-0  59252-3 0  9991
2 43187  97.5672  20.6020 0010422  19.5442 340.6186 15.11308619395836
S-Net A
1 43188U 18014J   25117.27294998  .00009697  00000-0  57812-3 0  9991
2 43188  97.5682  20.7420 0010366  20.6131 339.5515 15.11332915395837
S-Net C
1 43189U 18014K   25117.27956788  .00009919  00000-0  59149-3 0  9996
2 43189  97.5693  20.7555 0011559  11.9588 348.1914 15.11305733394389
Ten-Koh
1 43677U 18084G   25117.44948891  .00004631  00000-0  37394-3 0  9994
2 43677  98.0909 287.9917 0008339  69.5591 290.6526 15.00339702353770
PO-101
1 43678U 18084H   25117.84539680  .00004863  00000-0  41553-3 0  9990
2 43678  98.1027 292.3508 0010076  72.1007 288.1312 14.98115865353988
QO-100
1 43700U 18090A   25117.82041596  .00000146  00000-0  00000+0 0  9993
2 43700   0.0235 125.5335 0001742 308.8708 102.7831  1.00272118 23759
MinXSS-2
1 43758U 18099A   25117.61485102  .00025444  00000-0  10422-2 0  9997
2 43758  97.5045 183.5499 0010433 308.0375  51.9920 15.24228477350427
AO-95
1 43770U 18099N   25117.57117020  .00016836  00000-0  86873-3 0  9996
2 43770  97.4948 176.1495 0010493  10.8363 349.3094 15.16357232350033
RANGE-A
1 43773U 18099R   25117.56151176  .00009002  00000-0  57805-3 0  9998
2 43773  97.4516 167.2129 0010676 346.9299  13.1651 15.08633453349739
MOVE-II
1 43780U 18099Y   25117.19239475  .00179405  00000-0  21599-2 0  9999
2 43780  97.4690 190.0488 0004023 238.3795 121.7069 15.60208570351004
SNUSat 2
1 43782U 18099AA  25117.39002055  .00012154  00000-0  67422-3 0  9998
2 43782  97.4634 173.0685 0010544 306.3817  53.6441 15.13861613349960
SnugLite
1 43784U 18099AC  25117.61051744  .00016428  00000-0  84147-3 0  9995
2 43784  97.4450 172.7635 0001915 323.1309  36.9792 15.16666567350121
ITASat 1
1 43786U 18099AE  25117.61385055  .00011707  00000-0  67733-3 0  9999
2 43786  97.4608 172.9208 0014096   1.9318 358.1965 15.12321714349960
EAGLET 1
1 43790U 18099AJ  25117.11281934  .00007823  00000-0  50288-3 0  9991
2 43790  97.4797 172.5242 0011420 345.5528  14.5372 15.08630874349517
ESEO
1 43792U 18099AL  25117.51362926  .00002942  00000-0  22608-3 0  9990
2 43792  97.4518 166.7515 0010482 320.5524  39.4938 15.02432442349355
CSIM
1 43793U 18099AM  25117.16364166  .00166712  00000-0  20108-2 0  9998
2 43793  97.4861 192.2139 0006652 246.7828 113.2729 15.60187594350847
JO-97
1 43803U 18099AX  25117.60563863  .00019195  00000-0  89946-3 0  9992
2 43803  97.4700 177.0907 0005918 296.4963  63.5664 15.19726661350248
Suomi 100
1 43804U 18099AY  25117.61902509  .00015377  00000-0  76906-3 0  9998
2 43804  97.4765 176.5172 0010857 299.1742  60.8405 15.17471188350186
ISAT
1 43879U 18111D   25117.49976063  .00034572  00000-0  12603-2 0  9998
2 43879  97.5989  30.9936 0009001   7.2270 352.9096 15.28057640347116
UWE-4
1 43880U 18111E   25117.50369564  .00027660  00000-0  11236-2 0  9995
2 43880  97.5930  29.7639 0012665  12.8232 347.3324 15.24467052347064
Sparrow
1 43881U 18111F   25117.31847711  .00033806  00000-0  11921-2 0  9990
2 43881  97.6129  33.5252 0008823  46.4555 313.7415 15.29154479347173
Prox-1
1 44339U 19036A   25116.91283879  .00018473  00000-0  24105-2 0  9991
2 44339  23.9986 348.4277 0007338 297.5855  62.3896 14.78931969311544
SONATE
1 44400U 19038Q   25116.81706522  .00188125  00000-0  11707-2 0  9992
2 44400  97.6967 138.4505 0007133  77.3420 282.8642 15.76381689322644
Taurus 1
1 44530U 19059C   25117.85085579  .00015525  00000-0  28857-2 0  9993
2 44530  98.6019 255.2465 0010750 165.3015 194.8501 14.65202587297684
